TimeCST,TemperatureF,Dew PointF,Humidity,Sea Level PressureIn,VisibilityMPH,Wind Direction,Wind SpeedMPH,Gust SpeedMPH,PrecipitationIn,Events,Conditions,WindDirDegrees,DateUTC
12:15 AM,34.7,33.8,97,30.04,2.5,West,9.2,-,N/A,Snow,Light Snow,280,2013-03-01 06:15:00
12:35 AM,34.5,33.8,97,30.04,3.0,WNW,8.1,-,N/A,Snow,Light Snow,290,2013-03-01 06:35:00
12:55 AM,34.5,33.8,97,30.04,3.0,WNW,9.2,-,N/A,,Overcast,290,2013-03-01 06:55:00
1:15 AM,34.7,33.8,97,30.04,3.0,West,9.2,-,N/A,,Overcast,280,2013-03-01 07:15:00
1:35 AM,34.7,34.0,97,30.03,3.0,WNW,9.2,-,N/A,,Overcast,290,2013-03-01 07:35:00
2:15 AM,34.7,34.0,97,30.03,4.0,WNW,9.2,-,N/A,,Overcast,290,2013-03-01 08:15:00
2:35 AM,34.9,34.0,97,30.03,4.0,WNW,8.1,-,N/A,,Overcast,290,2013-03-01 08:35:00
2:55 AM,34.7,34.0,97,30.03,4.0,WNW,9.2,-,N/A,Snow,Light Snow,290,2013-03-01 08:55:00
3:15 AM,34.7,33.8,97,30.03,3.0,WNW,8.1,-,N/A,Snow,Light Snow,290,2013-03-01 09:15:00
3:55 AM,34.7,33.8,97,30.03,4.0,WNW,8.1,-,N/A,,Overcast,290,2013-03-01 09:55:00
4:15 AM,34.7,33.8,97,30.03,3.0,WNW,8.1,-,N/A,Snow,Light Snow,300,2013-03-01 10:15:00
4:35 AM,34.5,33.8,97,30.03,3.0,WNW,6.9,-,N/A,Snow,Light Snow,290,2013-03-01 10:35:00
5:15 AM,34.2,33.8,99,30.03,1.8,WNW,6.9,-,N/A,Snow,Light Snow,290,2013-03-01 11:15:00
5:35 AM,34.0,33.8,99,30.03,1.8,WNW,6.9,-,N/A,Snow,Light Snow,300,2013-03-01 11:35:00
5:55 AM,34.0,33.8,99,30.03,1.8,WNW,5.8,-,N/A,Snow,Light Snow,300,2013-03-01 11:55:00
6:15 AM,34.0,33.8,99,30.03,2.0,WNW,5.8,-,N/A,Snow,Light Snow,300,2013-03-01 12:15:00
6:35 AM,34.0,33.8,99,30.04,2.5,WNW,5.8,-,N/A,Snow,Light Snow,300,2013-03-01 12:35:00
6:55 AM,34.0,33.8,99,30.05,1.2,WNW,5.8,-,N/A,Snow,Light Snow,300,2013-03-01 12:55:00
7:15 AM,34.0,33.8,99,30.05,1.8,NW,6.9,-,N/A,Snow,Light Snow,320,2013-03-01 13:15:00
7:35 AM,34.0,33.8,99,30.06,1.8,NNW,6.9,-,N/A,Snow,Light Snow,330,2013-03-01 13:35:00
7:55 AM,33.8,33.1,97,30.06,3.0,North,6.9,-,N/A,Snow,Light Snow,360,2013-03-01 13:55:00
8:15 AM,34.0,33.1,96,30.07,3.0,North,4.6,-,N/A,Snow,Light Snow,350,2013-03-01 14:15:00
8:35 AM,34.2,33.3,97,30.07,5.0,North,5.8,-,N/A,Rain,Light Rain,350,2013-03-01 14:35:00
8:55 AM,34.7,33.3,94,30.07,5.0,North,5.8,-,N/A,Snow,Light Snow,350,2013-03-01 14:55:00
9:15 AM,35.6,34.0,94,30.07,5.0,NNW,4.6,-,N/A,Snow,Light Snow,340,2013-03-01 15:15:00
9:35 AM,36.1,34.0,92,30.07,5.0,NNW,5.8,-,N/A,Rain,Light Rain,330,2013-03-01 15:35:00
9:55 AM,36.3,33.8,91,30.07,7.0,NNW,5.8,-,N/A,,Overcast,340,2013-03-01 15:55:00
10:15 AM,36.5,34.2,91,30.07,7.0,North,5.8,-,N/A,Rain,Light Rain,350,2013-03-01 16:15:00
10:35 AM,37.2,34.3,89,30.07,7.0,NNW,6.9,-,N/A,Rain,Light Rain,340,2013-03-01 16:35:00
10:55 AM,37.0,34.2,89,30.07,7.0,NNW,8.1,-,N/A,,Light Drizzle,340,2013-03-01 16:55:00
11:15 AM,37.2,34.3,89,30.07,5.0,NNW,8.1,-,N/A,Rain,Light Rain,340,2013-03-01 17:15:00
11:35 AM,37.0,34.9,92,30.08,4.0,North,9.2,-,N/A,Rain,Light Rain,350,2013-03-01 17:35:00
11:55 AM,38.1,34.7,87,30.07,7.0,NNW,9.2,-,N/A,Rain,Light Rain,340,2013-03-01 17:55:00
12:15 PM,37.2,34.7,91,30.07,5.0,NNW,6.9,-,N/A,Rain,Light Rain,330,2013-03-01 18:15:00
12:35 PM,37.6,33.4,85,30.06,10.0,North,8.1,-,N/A,,Overcast,350,2013-03-01 18:35:00
12:55 PM,37.4,34.2,88,30.06,7.0,NNW,10.4,-,N/A,Rain,Light Rain,340,2013-03-01 18:55:00
1:15 PM,37.4,34.5,89,30.06,7.0,NW,9.2,-,N/A,Rain,Light Rain,320,2013-03-01 19:15:00
1:35 PM,37.6,34.9,90,30.05,5.0,NNW,9.2,-,N/A,Rain,Rain,330,2013-03-01 19:35:00
1:55 PM,37.4,34.5,89,30.05,7.0,NNW,12.7,-,N/A,,Light Drizzle,340,2013-03-01 19:55:00
2:15 PM,37.4,33.8,87,30.05,10.0,NNW,10.4,-,N/A,Snow,Light Snow,340,2013-03-01 20:15:00
2:35 PM,37.4,33.6,86,30.05,7.0,NW,9.2,-,N/A,,Mostly Cloudy,320,2013-03-01 20:35:00
2:55 PM,37.4,33.4,86,30.05,10.0,NW,10.4,-,N/A,,Mostly Cloudy,310,2013-03-01 20:55:00
3:15 PM,36.9,34.0,89,30.05,7.0,NW,9.2,-,N/A,Rain,Light Rain,320,2013-03-01 21:15:00
3:35 PM,36.7,34.0,90,30.06,7.0,North,10.4,-,N/A,Rain,Light Rain,350,2013-03-01 21:35:00
3:55 PM,36.5,34.5,93,30.06,4.0,NNW,10.4,-,N/A,Snow,Light Snow,330,2013-03-01 21:55:00
4:15 PM,36.5,34.2,91,30.06,7.0,NNW,12.7,-,N/A,Rain,Light Rain,330,2013-03-01 22:15:00
4:35 PM,35.6,33.4,92,30.07,5.0,NW,10.4,-,N/A,Snow,Light Snow,320,2013-03-01 22:35:00
4:55 PM,35.8,33.8,92,30.07,5.0,NW,6.9,-,N/A,Snow,Light Snow,310,2013-03-01 22:55:00
5:15 PM,35.8,33.1,90,30.07,5.0,NNW,13.8,-,N/A,,Mostly Cloudy,330,2013-03-01 23:15:00
5:35 PM,35.1,33.1,92,30.08,5.0,NNW,9.2,-,N/A,,Overcast,330,2013-03-01 23:35:00
5:55 PM,34.7,33.1,94,30.08,3.0,NW,8.1,-,N/A,Snow,Light Snow,320,2013-03-01 23:55:00
6:15 PM,34.7,32.4,91,30.09,10.0,NW,11.5,-,N/A,,Overcast,320,2013-03-02 00:15:00
6:35 PM,34.7,32.0,90,30.09,10.0,NW,11.5,-,N/A,,Mostly Cloudy,320,2013-03-02 00:35:00
6:55 PM,34.3,32.0,91,30.09,7.0,NW,11.5,-,N/A,,Scattered Clouds,320,2013-03-02 00:55:00
7:15 PM,34.3,32.2,92,30.10,5.0,NW,11.5,-,N/A,Snow,Light Snow,320,2013-03-02 01:15:00
7:35 PM,34.0,32.2,93,30.10,5.0,NW,12.7,-,N/A,Snow,Light Snow,320,2013-03-02 01:35:00
8:15 PM,33.8,32.0,93,30.10,5.0,NW,9.2,-,N/A,Snow,Light Snow,320,2013-03-02 02:15:00
8:35 PM,33.8,32.2,94,30.11,5.0,NW,6.9,-,N/A,Snow,Light Snow,310,2013-03-02 02:35:00
8:55 PM,33.8,32.0,93,30.11,7.0,NW,10.4,-,N/A,Snow,Light Snow,310,2013-03-02 02:55:00
9:15 PM,33.4,32.0,94,30.11,3.0,WNW,9.2,-,N/A,Snow,Light Snow,300,2013-03-02 03:15:00
9:35 PM,33.3,32.0,95,30.11,2.0,NW,9.2,-,N/A,Snow,Light Snow,310,2013-03-02 03:35:00
9:55 PM,33.3,32.2,96,30.10,2.0,NW,9.2,-,N/A,Snow,Light Snow,310,2013-03-02 03:55:00
10:15 PM,33.1,32.2,96,30.10,2.5,NW,10.4,-,N/A,Snow,Light Snow,310,2013-03-02 04:15:00
10:35 PM,33.3,32.4,96,30.10,3.0,NW,10.4,-,N/A,Snow,Light Snow,310,2013-03-02 04:35:00
10:55 PM,33.3,32.4,96,30.10,4.0,NW,10.4,-,N/A,Snow,Light Snow,320,2013-03-02 04:55:00
11:15 PM,33.4,32.5,96,30.10,3.0,NW,11.5,-,N/A,Snow,Light Snow,320,2013-03-02 05:15:00
11:35 PM,33.4,32.4,96,30.10,4.0,NW,11.5,-,N/A,Snow,Light Snow,320,2013-03-02 05:35:00
11:55 PM,33.4,32.4,96,30.10,4.0,NNW,10.4,-,N/A,Snow,Light Snow,330,2013-03-02 05:55:00